Погода Правая Хетта

Погода Правая Хетта : погода сейчас, прогноз погоды и архив. Всё, что Вы хотите узнать о погоде Правая Хетта!

Хотите узнать прогноз погоды Правая Хетта? Тогда Вам сюда: Погода Правая Хетта

Поиск расширенной информации на нашем сайте:

Другие новости

Новости СМИ2

Главная страница сайта

Новости сайта

03.07.2017

Напоминаем, что на нашем специализированном сайте Метеоцентр.Азия вы можете получить высокодетализированные автоматические прогнозы погоды по пунктам России, СНГ и мира в авиационном формате (включающие направление и скорость ветра, видимость, явления погоды, количество и форму облачности, нижнюю и верхнюю границу облачности).


Погода Правая Хетта - сегодня

Время (UTC), дата Ветер
(°,м/с) 
Видим.   Явления Облачность Т
(°С)
Тd
(°С)
f(%) Тe
(°С)
Pmin
(гПа)
dP
(гПа)
Po
(мм)
O2
(г/м3)
Тmin Tmax R s Состояние
почвы
12 12.10.18 280 (З) 20000 м  слаб. ливневой снег  10/10 600 м кучево-дожд. 
[Cb cap]
-0.5 -0.6 99 -2  991.8  1.7  739  298           
15 12.10.18 280 (З) 20000 м  {ливн. осадки}  10/10 600 м кучево-дожд. 
[Cb cap]
-1 -1.4 97 -3  993.3  1.5  740  299    +0.8     
18 12.10.18 250 (З) 20000 м  {ливн. осадки}  8/8 600 м 
[Sc]
-2.1 -2.6 96 -4  994.2  0.9  741  301           
21 12.10.18 240 (ЮЗ) 20000 м    6/0 верхняя 
[Ci fib]
-5.3 -5.3 100 -7  995.3  1.1  742  305           
00 13.10.18 180 (Ю) н/о    н/о 
-7.8 -7.8 100 -8  996.4  742  309           
03 13.10.18 150 (ЮВ) 20000 м    9/9 600 м 
[Sc]
-5.1 -5.3 98 -5  997.5  1.2  743  306  -8         
06 13.10.18 160 (Ю) 20000 м    10/6 600 м средняя 
[Sc|Ac As]
-1.2 -2.1 94 -1  998.4  744  301           
09 13.10.18 170 (Ю) 20000 м    9/9 1000 м 
[Sc]
-0.3 -1.6 91 -1  999.8  1.4  745  301           
12 13.10.18 160 (Ю) 20000 м    9/9 1500 м 
[Sc]
-0.7 -1.5 94 -2  1001.4  1.6  746  302           
18 13.10.18 150 (ЮВ) 20000 м    9/8 600 м средняя 
[Sc|Ac lent]
-2.8 -2.9 99 -2  1003  0.6  747  305           
21 13.10.18 тихо ()   20000 м    9/9 600 м 
[Sc]
-3.2 -3.2 100 -3  1003.6  0.7  748  305           
00 14.10.18 350 (С) 20000 м    8/8 1000 м 
[Sc]
-3.5 -3.5 100 -3  1003.6  748  306           
03 14.10.18 340 (С) 20000 м    9/4 600 м средняя, верхняя 
[Sc|Ac lent|Cs]
-3.8 -3.9 99 -3  1004  0.3  748  306  -4.7         
06 14.10.18 310 (СЗ) 20000 м    10/0 средняя, верхняя 
[Ac trans|Cs]
-1 -2.2 92 -2  1005  1.1  749  303           
09 14.10.18 290 (З) 20000 м    10/4 300 м кучево-дожд., средняя, верхняя 
[Cb cap|Ac trans|Cs]
+0.2 -2.3 83 -2  1007.1  2.1  750  302           
12 14.10.18 270 (З) 20000 м    10/8 300 м кучево-дожд., средняя, верхняя 
[Cb cap|Ac trans|Cs]
-0.9 -2.2 91 -3  1009.6  2.5  752  304           
18 14.10.18 260 (З) 20000 м  {ливн. осадки}  10/10 300 м кучево-дожд. 
[Cb cap]
-2.8 -3.5 95 -4  1012.4  754  308           
21 14.10.18 230 (ЮЗ) 20000 м    10/10 300 м кучево-дожд. 
[Cb cap]
-4.1 -4.1 100 -6  1013.1  0.6  755  309           
00 15.10.18 230 (ЮЗ) 10 км  слаб. ливневой снег  10/10 300 м кучево-дожд. 
[Cb cap]
-2.4 -2.6 99 -4  1013.4  0.4  755  307           
03 15.10.18 230 (ЮЗ) 10 км  слаб. ливневой снег  10/10 300 м кучево-дожд. 
[Cb cap]
-2.2 -2.4 99 -4  1014.8  1.3  756  307  -5.6    0.3  сухой снег
50-90% 
06 15.10.18 230 (ЮЗ) 10 км  слаб. ливневой снег  10/10 300 м кучево-дожд. 
[Cb cap]
-1.4 -1.9 96 -3  1015.9  1.1  757  307           
09 15.10.18 250 (З) 20000 м  {ливн. осадки}  10/10 300 м кучево-дожд. 
[Cb cap]
-0.6 -0.9 98 -1  1016.8  0.9  758  306           
12 15.10.18 240 (ЮЗ) 4000 м  слаб. ливневой снег  10/10 300 м кучево-дожд. 
[Cb cap]
-0.7 -0.7 100 -2  1018  1.2  759  307           
15 15.10.18 230 (ЮЗ) 10 км  слаб. ливневой снег  10/10 600 м кучево-дожд. 
[Cb cap]
-1.4 -1.4 100 -3  1018.6  0.5  759  308    -0.4     
18 15.10.18 220 (ЮЗ) н/о    н/о 
-1.6 -1.9 98 -4  1017.9  -0.7  758  308           
Время (UTC), дата Ветер
(°,м/с) 
Видим.   Явления Облачность Т
(°С)
Тd
(°С)
f(%) Тe
(°С)
Pmin
(гПа)
dP
(гПа)
Po
(мм)
O2
(г/м3)
Тmin Tmax R s Состояние
почвы

Для получения пояснительной информации подведите курсор к названию столбца.

ПОГОДА Правая Хетта - архив

Всё, что Вы хотите узнать о погоде Правая Хетта - удобно и подробно!

Выберите нужную дату (начиная с 1 января 2015* года) и нажмите кнопку "Найти".
Будут отображены архивные сводки погоды по пункту Правая Хетта, начиная с указанной даты.


Отображать данные в формате CSV (для использования в таблицах Excel)


Внимание! Наш архив погоды предназначен исключительно для личного некоммерческого использования в познавательных целях. Если Вам необходимы официальные справки о состоянии погоды (для производственных, юридических, коммерческих и т.п. целей), обращайтесь в органы Росгидромета.

*Примечание: данная дата относится к архиву по метеостанциям СССР (Россия, СНГ, Балтия).
Архив по метеостанциям Зарубежной Европы и Азии (кроме Китая) хранится 10 дней, по другим регионам земного шара (Китай, Африка, Америка, Австралия, Океания) - 1 день.

Правая Хетта - район местоположения метеостанции


Название, широта, долгота, высота метеостанции:
Правая Хетта 65.9°ш. 74.5°д. 54 м над ур. моря [Российская Федерация]

Дополнительная информация

В oтличие oт бoльшинства пoгoдных сайтoв мы публикуем пoдрoбную метеoинфoрмацию в детальнoм прoфессиoнальнoм фoрмате.

Характеристики температуры и влажнoсти вoздуха измеряются на высoте 2 м в тени вдали oт зданий и деревьев.
Скoрoсть ветра измеряется на высoте 10 м (на урoвне рoста челoвека скoрoсть ветра ниже в 1.5-2 раза). Если метеoстанция нахoдится в гoрoде или в лесу, тo скoрoсть ветра занижена на 2-4 м/с пo сравнению с oткрытым местoм. Скoрoсть ветра над акватoриями крупных рек и oзёр, а также на вершинах хoлмoв на 2-5 м/с выше, чем в oбычных услoвиях.
Атмoсфернoе давление в разных тoчках местнoсти мoжет значительнo oтличаться oт давления на метеoстанции, в зависимoсти oт услoвий рельефа (при пoдъёме на 10 м давление пoнижается примернo на 1 мм рт.ст.).